sat.trackr.live / text

‹ back to catalog

STARLINK-33693

NORAD 63409 · 2025-065L

PAYLOAD ACTIVE UNKNOWN

§ Identity

Operator
Country
US
Launch date
2025-03-31
Launch site
AFETR
Launch vehicle
Mass (kg)
RCS (m²)

Purposes: comms

External: N2YO · Heavens-Above · Gunter

§ Orbital elements

Epoch: 2026-09-20T05:47:39.043104Z

Period
94.27 min
Inclination
43.0039°
Eccentricity
0.0002227
Mean motion
15.27591347 rev/d
Perigee alt
481.5 km
Apogee alt
484.5 km
Semi-major
6,861.2 km
B*
3.4941e-4
RAAN
88.3870°
Arg perigee
267.8248°
Mean anomaly
92.2348°
Rev number
8,259

§ Raw data

STARLINK-336931 63409U 25065L   26263.24142411  .00009368  00000+0  34941-3 0  99972 63409  43.0039  88.3870 0002227 267.8248  92.2348 15.27591347 82593

JSON: /api/v1/satellites/63409 · /tle

For live sub-satellite position, see the globe view (requires WebGL).

§ Visibility from observer

Set your observer location to see the next 7 days of passes ≥ 10°. The values pass through the URL so the page stays shareable.

No JS? Fill the form by hand. The geolocation button needs JavaScript.